Time,TemperatureF,DewpointF,PressureIn,WindDirection,WindDirectionDegrees,WindSpeedMPH,WindSpeedGustMPH,Humidity,HourlyPrecipIn,Conditions,Clouds,dailyrainin,SolarRadiationWatts/m^2,SoftwareType,DateUTC
2013-02-12 00:21:00,22.0,20.0,-100.00,ESE,107,0.0,0.0,93,0.00,,,0.00,0.000000,,2013-02-12 08:21:00,
2013-02-12 00:31:00,22.0,20.0,-100.00,ESE,107,0.0,0.0,93,0.00,,,0.00,0.000000,,2013-02-12 08:31:00,
2013-02-12 00:41:00,22.0,20.0,-100.00,ESE,107,0.0,0.0,93,0.00,,,0.00,0.000000,,2013-02-12 08:41:00,
2013-02-12 00:52:00,22.0,20.0,-100.00,ESE,107,0.0,0.0,93,0.00,,,0.00,0.000000,,2013-02-12 08:52:00,
2013-02-12 01:11:00,23.0,22.0,-100.00,ESE,114,0.0,0.0,94,0.00,,,0.00,0.000000,,2013-02-12 09:11:00,
2013-02-12 01:21:00,23.0,22.0,-100.00,ESE,114,0.0,0.0,94,0.00,,,0.00,0.000000,,2013-02-12 09:21:00,
2013-02-12 01:31:00,23.0,22.0,-100.00,ESE,114,0.0,0.0,94,0.00,,,0.00,0.000000,,2013-02-12 09:31:00,
2013-02-12 01:41:00,23.0,22.0,-100.00,ESE,114,0.0,0.0,94,0.00,,,0.00,0.000000,,2013-02-12 09:41:00,
2013-02-12 01:51:00,23.0,22.0,-100.00,ESE,114,0.0,0.0,94,0.00,,,0.00,0.000000,,2013-02-12 09:51:00,
2013-02-12 02:21:00,22.0,21.0,-100.00,NE,49,0.0,0.0,94,0.00,,,0.00,0.000000,,2013-02-12 10:21:00,
2013-02-12 02:31:00,22.0,21.0,-100.00,NE,49,0.0,0.0,94,0.00,,,0.00,0.000000,,2013-02-12 10:31:00,
2013-02-12 02:43:00,22.0,21.0,-100.00,NE,49,0.0,0.0,94,0.00,,,0.00,0.000000,,2013-02-12 10:43:00,
2013-02-12 02:51:00,22.0,21.0,-100.00,NE,49,0.0,0.0,94,0.00,,,0.00,0.000000,,2013-02-12 10:51:00,
2013-02-12 03:21:00,23.0,22.0,-100.00,SSE,158,0.0,0.0,95,0.00,,,0.00,0.000000,,2013-02-12 11:21:00,
2013-02-12 03:31:00,23.0,22.0,-100.00,SSE,158,0.0,0.0,95,0.00,,,0.00,0.000000,,2013-02-12 11:31:00,
2013-02-12 03:41:00,23.0,22.0,-100.00,SSE,158,0.0,0.0,95,0.00,,,0.00,0.000000,,2013-02-12 11:41:00,
2013-02-12 03:52:00,23.0,22.0,-100.00,SSE,158,0.0,0.0,95,0.00,,,0.00,0.000000,,2013-02-12 11:52:00,
2013-02-12 04:21:00,24.0,23.0,-100.00,SSE,148,0.0,0.0,95,0.00,,,0.00,0.000000,,2013-02-12 12:21:00,
2013-02-12 04:32:00,24.0,23.0,-100.00,SSE,148,0.0,0.0,95,0.00,,,0.00,0.000000,,2013-02-12 12:32:00,
2013-02-12 04:42:00,24.0,23.0,-100.00,SSE,148,0.0,0.0,95,0.00,,,0.00,0.000000,,2013-02-12 12:42:00,
2013-02-12 04:52:00,24.0,23.0,-100.00,SSE,148,0.0,0.0,95,0.00,,,0.00,0.000000,,2013-02-12 12:52:00,
2013-02-12 05:22:00,24.0,23.0,-100.00,SSE,150,0.0,0.0,95,0.00,,,0.00,0.000000,,2013-02-12 13:22:00,
2013-02-12 05:31:00,24.0,23.0,-100.00,SSE,150,0.0,0.0,95,0.00,,,0.00,0.000000,,2013-02-12 13:31:00,
2013-02-12 05:42:00,24.0,23.0,-100.00,SSE,150,0.0,0.0,95,0.00,,,0.00,0.000000,,2013-02-12 13:42:00,
2013-02-12 05:51:00,24.0,23.0,-100.00,SSE,150,0.0,0.0,95,0.00,,,0.00,0.000000,,2013-02-12 13:51:00,
2013-02-12 06:11:00,24.0,23.0,-100.00,SSE,147,0.0,0.0,94,0.00,,,0.00,0.000000,,2013-02-12 14:11:00,
2013-02-12 06:21:00,24.0,23.0,-100.00,SSE,147,0.0,0.0,94,0.00,,,0.00,0.000000,,2013-02-12 14:21:00,
2013-02-12 06:31:00,24.0,23.0,-100.00,SSE,147,0.0,0.0,94,0.00,,,0.00,0.000000,,2013-02-12 14:31:00,
2013-02-12 06:41:00,24.0,23.0,-100.00,SSE,147,0.0,0.0,94,0.00,,,0.00,0.000000,,2013-02-12 14:41:00,
2013-02-12 06:52:00,24.0,23.0,-100.00,SSE,147,0.0,0.0,94,0.00,,,0.00,0.000000,,2013-02-12 14:52:00,
2013-02-12 07:11:00,23.0,22.0,-100.00,NNE,24,0.0,0.0,94,0.00,,,0.00,0.000000,,2013-02-12 15:11:00,
2013-02-12 07:21:00,23.0,22.0,-100.00,NNE,24,0.0,0.0,94,0.00,,,0.00,0.000000,,2013-02-12 15:21:00,
2013-02-12 07:32:00,23.0,22.0,-100.00,NNE,24,0.0,0.0,94,0.00,,,0.00,0.000000,,2013-02-12 15:32:00,
2013-02-12 07:42:00,23.0,22.0,-100.00,NNE,24,0.0,0.0,94,0.00,,,0.00,0.000000,,2013-02-12 15:42:00,
2013-02-12 07:52:00,23.0,22.0,-100.00,NNE,24,0.0,0.0,94,0.00,,,0.00,0.000000,,2013-02-12 15:52:00,
2013-02-12 08:22:00,23.0,22.0,-100.00,NNE,13,0.0,0.0,94,0.00,,,0.00,11.000000,,2013-02-12 16:22:00,
2013-02-12 08:31:00,23.0,22.0,-100.00,NNE,13,0.0,0.0,94,0.00,,,0.00,11.000000,,2013-02-12 16:31:00,
2013-02-12 08:41:00,23.0,22.0,-100.00,NNE,13,0.0,0.0,94,0.00,,,0.00,11.000000,,2013-02-12 16:41:00,
2013-02-12 08:51:00,23.0,22.0,-100.00,NNE,13,0.0,0.0,94,0.00,,,0.00,11.000000,,2013-02-12 16:51:00,
2013-02-12 09:21:00,26.0,25.0,-100.00,SSE,154,0.0,0.0,94,0.00,,,-99.99,72.000000,,2013-02-12 17:21:00,
2013-02-12 09:31:00,26.0,25.0,-100.00,SSE,154,0.0,0.0,94,0.00,,,-99.99,72.000000,,2013-02-12 17:31:00,
2013-02-12 09:41:00,26.0,25.0,-100.00,SSE,154,0.0,0.0,94,0.00,,,-99.99,72.000000,,2013-02-12 17:41:00,
2013-02-12 09:52:00,26.0,25.0,-100.00,SSE,154,0.0,0.0,94,0.00,,,-99.99,72.000000,,2013-02-12 17:52:00,
2013-02-12 10:22:00,31.0,29.0,-100.00,SE,125,0.0,0.0,94,0.00,,,0.00,175.000000,,2013-02-12 18:22:00,
2013-02-12 10:31:00,31.0,29.0,-100.00,SE,125,0.0,0.0,94,0.00,,,0.00,175.000000,,2013-02-12 18:31:00,
2013-02-12 10:41:00,31.0,29.0,-100.00,SE,125,0.0,0.0,94,0.00,,,0.00,175.000000,,2013-02-12 18:41:00,
2013-02-12 10:51:00,31.0,29.0,-100.00,SE,125,0.0,0.0,94,0.00,,,0.00,175.000000,,2013-02-12 18:51:00,
2013-02-12 11:11:00,30.0,27.0,-100.00,SSW,211,0.0,2.0,88,0.00,,,0.00,219.000000,,2013-02-12 19:11:00,
2013-02-12 11:21:00,30.0,27.0,-100.00,SSW,211,0.0,2.0,88,0.00,,,0.00,219.000000,,2013-02-12 19:21:00,
2013-02-12 11:31:00,30.0,27.0,-100.00,SSW,211,0.0,2.0,88,0.00,,,0.00,219.000000,,2013-02-12 19:31:00,
2013-02-12 11:41:00,30.0,27.0,-100.00,SSW,211,0.0,2.0,88,0.00,,,0.00,219.000000,,2013-02-12 19:41:00,
2013-02-12 11:51:00,30.0,27.0,-100.00,SSW,211,0.0,2.0,88,0.00,,,0.00,219.000000,,2013-02-12 19:51:00,
2013-02-12 12:21:00,30.0,26.0,-100.00,South,184,0.0,4.0,86,0.00,,,0.00,194.000000,,2013-02-12 20:21:00,
2013-02-12 12:31:00,30.0,26.0,-100.00,South,184,0.0,4.0,86,0.00,,,0.00,194.000000,,2013-02-12 20:31:00,
2013-02-12 12:41:00,30.0,26.0,-100.00,South,184,0.0,4.0,86,0.00,,,0.00,194.000000,,2013-02-12 20:41:00,
2013-02-12 12:51:00,30.0,26.0,-100.00,South,184,0.0,4.0,86,0.00,,,0.00,194.000000,,2013-02-12 20:51:00,
2013-02-12 13:21:00,32.0,26.0,-100.00,SW,228,1.0,4.0,79,0.00,,,-99.99,249.000000,,2013-02-12 21:21:00,
2013-02-12 13:31:00,32.0,26.0,-100.00,SW,228,1.0,4.0,79,0.00,,,-99.99,249.000000,,2013-02-12 21:31:00,
2013-02-12 13:41:00,32.0,26.0,-100.00,SW,228,1.0,4.0,79,0.00,,,-99.99,249.000000,,2013-02-12 21:41:00,
2013-02-12 13:51:00,32.0,26.0,-100.00,SW,228,1.0,4.0,79,0.00,,,-99.99,249.000000,,2013-02-12 21:51:00,
2013-02-12 14:21:00,32.0,27.0,-100.00,SSE,155,0.0,5.0,80,0.00,,,0.00,287.000000,,2013-02-12 22:21:00,
2013-02-12 14:31:00,32.0,27.0,-100.00,SSE,155,0.0,5.0,80,0.00,,,0.00,287.000000,,2013-02-12 22:31:00,
2013-02-12 14:41:00,32.0,27.0,-100.00,SSE,155,0.0,5.0,80,0.00,,,0.00,287.000000,,2013-02-12 22:41:00,
2013-02-12 14:51:00,32.0,27.0,-100.00,SSE,155,0.0,5.0,80,0.00,,,0.00,287.000000,,2013-02-12 22:51:00,
2013-02-12 15:21:00,30.0,27.0,-100.00,SSE,166,0.0,3.0,87,0.00,,,0.00,177.000000,,2013-02-12 23:21:00,
2013-02-12 15:31:00,30.0,27.0,-100.00,SSE,166,0.0,3.0,87,0.00,,,0.00,177.000000,,2013-02-12 23:31:00,
2013-02-12 15:41:00,30.0,27.0,-100.00,SSE,166,0.0,3.0,87,0.00,,,0.00,177.000000,,2013-02-12 23:41:00,
2013-02-12 15:52:00,30.0,27.0,-100.00,SSE,166,0.0,3.0,87,0.00,,,0.00,177.000000,,2013-02-12 23:52:00,
2013-02-12 16:21:00,29.0,27.0,-100.00,SSE,153,0.0,3.0,91,0.00,,,0.00,81.000000,,2013-02-13 00:21:00,
2013-02-12 16:32:00,29.0,27.0,-100.00,SSE,153,0.0,3.0,91,0.00,,,0.00,81.000000,,2013-02-13 00:32:00,
2013-02-12 16:42:00,29.0,27.0,-100.00,SSE,153,0.0,3.0,91,0.00,,,0.00,81.000000,,2013-02-13 00:42:00,
2013-02-12 16:51:00,29.0,27.0,-100.00,SSE,153,0.0,3.0,91,0.00,,,0.00,81.000000,,2013-02-13 00:51:00,
2013-02-12 17:42:00,28.0,26.0,-100.00,ESE,113,0.0,0.0,92,0.00,,,0.00,59.000000,,2013-02-13 01:42:00,
2013-02-12 17:51:00,28.0,26.0,-100.00,ESE,113,0.0,0.0,92,0.00,,,0.00,59.000000,,2013-02-13 01:51:00,
2013-02-12 18:41:00,27.0,26.0,-100.00,NE,55,0.0,3.0,96,0.00,,,0.00,3.000000,,2013-02-13 02:41:00,
2013-02-12 18:52:00,27.0,26.0,-100.00,NE,55,0.0,3.0,96,0.00,,,0.00,3.000000,,2013-02-13 02:52:00,
2013-02-12 19:21:00,27.0,26.0,-100.00,SE,128,0.0,3.0,97,0.00,,,0.00,0.000000,,2013-02-13 03:21:00,
2013-02-12 19:32:00,27.0,26.0,-100.00,SE,128,0.0,3.0,97,0.00,,,0.00,0.000000,,2013-02-13 03:32:00,
2013-02-12 19:41:00,27.0,26.0,-100.00,SE,128,0.0,3.0,97,0.00,,,0.00,0.000000,,2013-02-13 03:41:00,
2013-02-12 19:51:00,27.0,26.0,-100.00,SE,128,0.0,3.0,97,0.00,,,0.00,0.000000,,2013-02-13 03:51:00,
2013-02-12 20:11:00,28.0,27.0,-100.00,NE,54,0.0,4.0,96,0.00,,,0.00,0.000000,,2013-02-13 04:11:00,
2013-02-12 20:21:00,28.0,27.0,-100.00,NE,54,0.0,4.0,96,0.00,,,0.00,0.000000,,2013-02-13 04:21:00,
2013-02-12 20:31:00,28.0,27.0,-100.00,NE,54,0.0,4.0,96,0.00,,,0.00,0.000000,,2013-02-13 04:31:00,
2013-02-12 20:41:00,28.0,27.0,-100.00,NE,54,0.0,4.0,96,0.00,,,0.00,0.000000,,2013-02-13 04:41:00,
2013-02-12 20:51:00,28.0,27.0,-100.00,NE,54,0.0,4.0,96,0.00,,,0.00,0.000000,,2013-02-13 04:51:00,
2013-02-12 21:22:00,27.0,26.0,-100.00,East,97,0.0,5.0,96,0.00,,,0.00,0.000000,,2013-02-13 05:22:00,
2013-02-12 21:31:00,27.0,26.0,-100.00,East,97,0.0,5.0,96,0.00,,,0.00,0.000000,,2013-02-13 05:31:00,
2013-02-12 21:41:00,27.0,26.0,-100.00,East,97,0.0,5.0,96,0.00,,,0.00,0.000000,,2013-02-13 05:41:00,
2013-02-12 21:52:00,27.0,26.0,-100.00,East,97,0.0,5.0,96,0.00,,,0.00,0.000000,,2013-02-13 05:52:00,
2013-02-12 22:11:00,28.0,27.0,-100.00,East,84,0.0,4.0,97,0.00,,,-99.99,0.000000,,2013-02-13 06:11:00,
2013-02-12 22:21:00,28.0,27.0,-100.00,East,84,0.0,4.0,97,0.00,,,-99.99,0.000000,,2013-02-13 06:21:00,
2013-02-12 22:31:00,28.0,27.0,-100.00,East,84,0.0,4.0,97,0.00,,,-99.99,0.000000,,2013-02-13 06:31:00,
2013-02-12 22:41:00,28.0,27.0,-100.00,East,84,0.0,4.0,97,0.00,,,-99.99,0.000000,,2013-02-13 06:41:00,
2013-02-12 22:51:00,28.0,27.0,-100.00,East,84,0.0,4.0,97,0.00,,,-99.99,0.000000,,2013-02-13 06:51:00,
2013-02-12 23:21:00,29.0,29.0,-100.00,East,92,0.0,4.0,99,0.00,,,0.00,0.000000,,2013-02-13 07:21:00,
2013-02-12 23:31:00,29.0,29.0,-100.00,East,92,0.0,4.0,99,0.00,,,0.00,0.000000,,2013-02-13 07:31:00,
2013-02-12 23:41:00,29.0,29.0,-100.00,East,92,0.0,4.0,99,0.00,,,0.00,0.000000,,2013-02-13 07:41:00,
2013-02-12 23:51:00,29.0,29.0,-100.00,East,92,0.0,4.0,99,0.00,,,0.00,0.000000,,2013-02-13 07:51:00,